{"data":{"norad_id":52200,"epoch":"2026-09-20T23:18:40.709664Z","epoch_age_seconds":80185,"freshness":"FRESH","line1":"1 52200U 22035A   26263.97130451 -.00000037  00000+0  18776-5 0  9994","line2":"2 52200  98.4107 271.1761 0000860  82.2897 277.8390 14.42217418234655","mean_motion":14.42217418,"eccentricity":8.6e-5,"inclination_deg":98.4107,"raan_deg":271.1761,"arg_perigee_deg":82.2897,"mean_anomaly_deg":277.839,"bstar":1.8776e-6,"rev_number":23465,"period_min":99.846249395388,"perigee_km":750.56837842155,"apogee_km":751.79462120352,"semimajor_km":7129.3184998125,"source":"CELESTRAK","updated_at":"2026-09-21T09:00:08.493975Z"}}